Theta_e
307 309 323 325 335 334 339 338 332 334 326 323 323 322 322 323 323 323 334 338 333 328 330 324 324 323 321 321 322 324 325 325 325 326 330 331 333 333 333 333 333 332 331 331 331 330 329 329 330
308 314 325 331 338 343 340 337 337 330 324 323 322 322 324 327 329 331 336 338 337 335 333 326 324 322 321 322 324 326 328 329 329 333 336 336 337 335 334 334 334 334 334 333 333 333 332 330 330
315 321 324 337 338 343 341 337 332 330 325 323 322 323 325 327 328 330 334 338 337 336 329 325 323 322 322 324 326 329 331 332 337 338 338 338 336 337 336 335 334 335 335 335 334 334 334 333 331
324 330 330 338 340 337 338 336 333 329 322 321 323 326 324 326 327 332 329 335 336 331 327 324 323 323 324 326 329 331 332 335 338 339 338 338 337 336 335 332 332 334 334 333 334 334 336 334 333
332 329 338 336 338 334 332 330 326 326 323 322 322 326 325 326 328 328 329 332 334 331 328 326 326 326 326 328 329 330 332 333 336 337 338 337 337 336 335 335 334 334 333 332 332 333 334 336 334
331 324 330 332 330 329 327 326 325 325 325 322 325 325 324 325 328 329 329 332 331 329 329 328 329 329 329 330 330 326 323 331 333 335 334 333 333 334 335 335 334 332 331 332 332 332 333 333 333
330 329 332 330 332 330 328 325 327 326 324 324 323 325 324 325 329 331 331 331 330 330 331 331 333 331 330 328 323 320 320 321 323 326 324 324 325 327 330 330 330 331 332 331 331 332 332 332 332
327 327 332 328 329 329 327 324 322 324 324 322 325 327 326 323 327 332 335 333 333 333 333 336 331 328 327 324 322 321 322 323 325 325 326 326 325 326 327 329 329 329 329 330 329 331 331 331 331
324 328 330 329 328 327 325 325 325 323 323 323 321 324 325 326 326 325 331 334 334 336 336 333 328 327 325 324 323 323 324 325 326 326 327 327 327 327 325 324 324 328 330 331 331 330 330 330 331
328 329 329 326 326 326 326 327 327 325 325 321 322 324 325 325 324 323 323 325 331 333 331 328 328 325 326 324 324 325 326 327 327 329 327 327 324 324 324 324 326 329 329 330 330 329 332 332 332
327 330 328 327 327 327 326 327 328 326 326 325 322 322 324 322 322 323 322 324 326 327 328 329 328 326 326 325 324 325 328 327 327 328 328 325 324 324 324 323 323 324 325 325 325 327 330 332 331
329 328 329 328 327 328 328 328 328 327 326 325 323 323 323 322 321 322 322 322 323 324 326 327 327 325 324 324 325 326 327 328 327 327 326 326 324 326 326 324 324 325 325 326 325 327 328 330 330
327 327 327 327 327 328 327 327 327 327 326 325 320 323 324 323 321 322 322 323 322 321 323 325 324 322 323 325 326 327 326 326 326 327 327 326 326 326 327 325 324 325 325 325 325 325 327 328 329
326 327 327 328 329 328 328 328 328 328 326 325 321 322 323 323 322 321 320 321 321 321 322 323 322 323 325 325 324 326 327 328 328 328 328 328 327 325 326 326 324 323 324 324 325 325 326 327 328
317 319 320 323 325 326 326 327 326 324 323 322 322 319 321 322 322 320 321 320 321 320 322 322 324 326 324 322 325 327 328 329 329 329 328 328 327 326 326 326 322 323 324 324 324 325 326 327 327
317 317 320 321 323 325 322 327 324 323 322 323 322 320 319 320 320 321 320 320 320 322 322 324 326 325 324 324 326 328 329 329 329 329 329 329 328 327 325 325 323 323 325 324 323 324 325 325 325
315 318 318 320 320 321 321 323 324 323 322 322 322 321 318 318 317 319 320 320 320 324 325 326 326 326 325 325 327 328 328 328 329 329 330 330 329 328 325 323 320 324 325 324 323 323 324 325 325
315 316 318 320 320 320 321 322 323 323 323 322 322 322 320 320 318 318 320 320 321 324 325 325 326 326 326 327 329 328 329 329 329 330 330 330 328 327 322 320 319 326 325 324 324 323 324 324 325
316 316 317 318 320 322 322 322 323 323 321 322 322 322 320 320 319 319 320 320 321 324 325 326 327 327 327 329 328 330 329 329 329 329 329 329 328 327 325 323 325 326 325 324 323 322 323 323 324
317 318 320 321 321 321 321 321 321 321 321 321 323 321 319 322 322 321 320 320 323 324 326 327 327 328 329 329 327 329 330 329 329 329 330 329 329 328 328 327 326 326 325 323 323 323 323 323 324
318 318 318 320 321 321 321 323 323 322 321 322 321 320 320 321 323 323 321 320 323 325 327 327 328 328 329 327 329 329 329 330 329 329 329 329 328 327 327 327 326 325 324 323 322 323 324 325 326
318 319 319 320 321 324 322 324 322 321 322 321 320 319 319 321 322 323 322 319 323 326 326 328 329 329 327 327 327 330 330 329 329 329 328 327 326 327 326 326 325 324 324 324 323 324 325 326 327
318 319 320 321 321 321 323 323 322 320 323 321 319 318 317 320 322 323 321 321 324 325 327 329 329 328 327 328 329 331 328 328 328 328 327 327 326 326 326 325 324 325 325 325 324 324 325 326 327
316 318 318 318 319 323 322 322 324 322 322 322 322 321 321 319 321 321 321 322 323 324 327 328 328 327 328 328 329 330 327 326 327 327 327 326 326 327 326 326 325 326 326 326 326 326 326 326 327
315 317 319 319 322 325 321 322 323 322 321 321 322 321 320 320 323 322 322 320 322 324 327 328 326 327 328 329 329 328 327 326 325 326 327 326 326 327 327 326 326 326 326 326 326 326 327 325 328
314 317 321 325 324 323 322 325 324 321 321 321 320 319 321 321 323 323 321 321 322 324 327 326 326 326 327 326 329 328 328 324 325 326 327 326 326 326 326 326 325 325 327 327 327 326 327 325 329
313 317 318 318 321 322 322 322 322 322 322 324 323 322 322 322 323 323 321 320 322 324 326 326 326 325 324 325 328 329 328 325 324 326 326 326 326 326 326 325 325 326 327 326 327 328 328 328 329
312 313 314 312 318 322 323 323 324 323 325 326 325 323 322 322 323 323 321 319 322 324 325 325 326 326 323 327 328 328 329 328 326 326 325 325 326 326 325 325 325 325 327 327 328 328 330 331 330
312 314 314 316 318 322 322 323 319 321 322 325 323 322 322 323 324 323 320 320 322 324 324 324 325 326 324 327 327 328 330 329 329 326 325 326 326 326 326 326 326 326 327 328 328 330 330 329 328
314 313 313 316 318 319 321 324 321 318 319 323 323 322 321 322 323 322 320 318 319 321 322 321 324 326 325 326 327 329 330 330 328 326 325 327 326 327 327 328 328 328 328 328 328 329 329 329 328
Wind_Speed
7 10 5 2 3 4 4 6 3 8 3 5 3 3 5 2 5 4 6 25 22 32 28 34 30 27 24 21 19 18 17 17 16 15 14 13 13 12 11 11 10 10 10 10 10 10 10 9 8
11 9 2 2 3 0 5 5 7 8 6 3 3 2 1 2 2 3 10 26 24 26 31 34 30 27 24 21 18 17 17 17 16 15 14 15 14 13 13 13 13 13 12 12 12 12 11 11 10
12 4 3 3 3 5 5 4 6 7 11 4 5 3 2 3 2 9 7 29 24 28 31 32 29 27 24 21 19 17 17 15 16 14 17 15 14 14 16 16 16 16 16 15 15 14 13 12 12
6 3 3 3 8 7 5 7 8 9 5 4 3 2 4 6 4 16 14 27 28 29 31 30 28 26 23 20 18 17 16 16 16 16 17 16 15 15 16 17 18 17 17 18 18 18 17 14 14
3 3 1 3 6 6 6 9 6 7 5 4 6 5 4 3 10 18 27 29 30 30 31 29 26 24 22 20 18 15 14 15 16 17 16 16 17 17 17 18 18 18 19 19 20 20 20 17 16
3 3 1 4 5 5 6 11 5 6 6 2 2 5 5 5 14 24 30 31 29 28 29 28 25 24 22 20 17 12 11 15 17 17 16 16 18 17 17 17 18 20 20 21 21 22 21 19 18
5 4 4 5 8 9 6 5 2 3 6 6 4 6 4 4 20 31 32 30 28 27 27 27 26 23 20 17 13 11 11 11 13 13 12 14 17 17 17 19 20 21 21 22 23 23 22 20 19
5 4 3 5 3 9 4 5 5 3 11 1 4 3 6 7 23 27 27 27 26 27 27 28 26 22 19 15 14 13 12 13 12 11 11 12 12 12 11 14 16 18 21 22 24 24 25 23 21
4 3 6 7 7 8 3 3 4 5 4 5 6 7 6 15 26 25 25 24 26 28 29 29 26 23 19 17 14 13 14 14 14 13 13 11 13 15 14 14 13 13 16 18 21 22 24 22 21
5 5 10 11 7 6 8 8 16 5 12 6 7 6 3 30 28 21 18 19 28 31 31 29 26 23 20 17 15 14 15 15 15 16 15 13 14 13 12 12 11 12 14 16 14 19 19 19 21
7 13 23 15 15 5 7 15 16 12 17 13 12 7 5 8 17 18 21 29 38 35 32 29 25 22 20 18 16 15 16 15 16 16 16 15 13 12 11 12 12 12 14 14 13 14 16 18 19
4 11 19 24 18 6 12 14 17 20 16 18 15 5 9 9 12 16 20 29 32 32 32 29 26 23 20 17 14 14 16 15 13 11 13 16 14 13 13 13 12 12 13 11 10 10 14 17 19
7 19 18 14 11 14 17 20 21 22 22 19 10 8 14 16 17 24 29 31 32 30 31 30 29 24 19 15 13 14 11 11 10 12 14 14 14 15 14 13 13 14 13 11 11 11 13 16 18
6 9 18 15 19 18 21 23 19 25 17 18 10 12 13 16 19 19 19 28 32 32 35 33 29 23 18 15 15 11 9 8 10 11 13 14 15 15 16 15 14 14 13 12 12 11 13 15 17
6 12 16 19 22 20 10 20 22 21 14 16 17 11 12 17 18 19 34 32 35 33 38 35 29 21 16 14 11 8 6 9 12 13 14 15 14 13 14 15 15 14 13 13 12 12 12 13 15
4 2 8 6 15 16 7 26 25 21 12 16 16 11 10 15 14 31 28 30 33 36 38 32 26 21 16 12 9 7 7 10 13 15 16 15 13 13 13 15 17 14 14 13 13 14 14 14 15
3 12 13 17 10 6 8 13 21 8 8 12 13 13 10 14 10 19 24 30 33 37 35 29 24 20 15 11 9 7 8 11 13 15 15 14 13 13 14 16 16 13 13 14 13 15 14 13 13
11 9 15 19 3 11 16 14 22 19 8 11 15 19 12 13 18 18 26 29 34 34 31 26 20 16 14 10 8 7 9 9 11 13 14 12 12 13 14 14 15 13 12 13 14 16 14 11 11
13 12 18 18 5 7 9 10 17 19 9 16 16 17 12 12 2 15 24 30 36 33 29 25 20 16 14 10 8 6 8 9 11 12 13 12 11 11 12 13 12 12 12 11 12 14 14 13 9
11 9 18 15 12 5 12 15 16 17 14 16 21 14 11 3 4 6 19 27 32 33 29 23 18 16 13 8 5 6 7 7 10 10 10 12 10 10 14 13 11 9 10 9 12 15 13 12 13
17 19 19 20 6 7 11 12 16 17 8 10 8 5 6 11 11 12 14 21 28 32 28 23 19 15 11 7 3 3 5 6 8 7 6 7 6 7 8 11 10 8 9 10 14 16 14 12 11
19 19 19 17 8 9 4 5 5 8 10 7 9 7 9 8 7 12 15 13 24 29 24 21 18 14 11 7 3 2 4 6 5 4 3 3 2 3 4 7 8 8 8 10 14 16 16 14 9
18 12 12 8 7 5 16 4 5 4 10 10 10 9 9 8 10 14 13 17 26 26 23 20 17 15 12 7 4 3 3 4 2 1 0 2 2 3 4 6 7 5 5 9 12 15 15 12 14
8 3 3 6 2 8 21 5 8 6 8 6 6 6 4 7 10 9 13 22 22 22 21 19 19 14 12 9 6 4 0 1 3 2 1 2 4 5 6 6 6 3 3 6 8 11 11 12 13
10 6 2 3 4 6 8 6 14 10 10 12 11 5 8 8 11 13 15 10 18 21 21 21 18 15 11 7 7 4 2 3 2 2 1 0 5 8 9 7 6 3 4 3 5 7 11 9 13
22 15 6 6 4 4 6 7 10 9 12 10 9 7 9 9 9 12 13 12 18 23 23 21 17 14 11 7 9 4 3 3 1 2 1 3 6 11 10 8 6 3 3 3 4 6 9 8 10
11 15 12 3 1 1 4 7 8 3 1 2 6 8 9 9 11 13 11 13 20 24 26 22 17 13 10 8 8 6 4 4 2 3 3 6 8 10 10 9 7 4 4 4 6 8 9 8 9
9 9 9 4 4 3 5 4 6 3 2 3 6 8 7 7 9 10 9 13 21 27 26 19 16 13 11 11 8 7 6 4 3 3 5 7 7 8 9 9 8 5 5 6 8 8 9 11 14
6 15 3 8 5 6 1 6 8 9 9 11 9 8 11 11 12 12 9 15 24 27 24 19 15 14 11 11 8 6 7 4 4 3 6 5 6 7 8 8 8 9 8 10 11 11 13 14 16
23 19 20 8 8 2 5 12 5 8 10 9 9 8 7 8 12 10 11 14 18 24 22 18 16 16 14 10 9 7 9 5 5 5 7 5 7 8 8 9 9 10 12 12 13 16 14 16 17
Wind_Direction
147 137 121 68 48 60 266 258 265 288 282 225 107 154 196 117 152 215 174 175 187 189 188 194 196 196 201 203 204 202 202 207 211 215 219 220 221 226 234 240 243 246 253 260 266 265 264 256 252
143 134 100 81 104 82 263 243 248 244 242 2 66 66 279 176 205 116 144 182 191 188 190 194 195 198 202 205 207 208 211 214 219 222 227 232 228 231 244 248 250 252 257 260 260 263 257 254 253
138 91 87 112 163 200 225 259 280 287 288 211 150 29 174 223 175 175 187 181 187 188 188 193 194 199 203 206 209 213 218 224 229 232 238 238 237 235 240 245 247 247 251 256 259 257 258 256 250
140 43 35 124 236 257 242 278 272 284 293 241 126 149 279 202 203 181 180 182 182 184 189 192 197 200 202 206 212 219 226 231 235 242 246 248 243 243 245 251 251 250 253 256 258 261 253 250 247
114 61 126 243 248 256 254 270 279 249 231 206 159 207 242 257 178 179 172 178 180 185 192 194 197 199 202 206 212 222 231 245 246 247 249 253 254 255 252 253 251 250 253 255 255 255 251 247 245
71 102 45 252 228 249 274 256 253 252 300 261 132 144 229 277 189 176 174 177 183 187 193 195 196 199 202 206 214 216 231 239 247 248 252 257 259 261 262 258 257 257 255 256 255 254 253 250 245
130 105 230 253 281 297 217 237 220 316 293 262 153 153 262 249 187 176 179 182 187 192 191 192 194 196 203 209 216 218 225 239 246 247 255 267 272 270 267 264 261 262 261 260 258 257 255 255 248
129 114 258 239 220 267 208 332 341 350 305 18 136 222 249 214 179 177 184 187 193 194 193 192 193 195 199 210 219 224 227 233 243 248 268 283 277 275 274 264 264 262 264 265 260 256 254 251 246
145 111 248 237 184 248 257 2 236 279 246 317 215 168 240 187 169 163 171 179 186 193 195 195 195 193 201 206 214 227 233 235 239 256 267 275 269 262 265 272 270 270 267 268 257 250 250 247 240
170 175 229 226 207 245 294 309 290 326 301 270 279 268 248 165 168 164 171 176 187 193 196 199 199 195 198 203 215 230 233 229 240 248 253 250 278 265 270 273 271 268 272 274 279 249 245 240 230
189 222 233 267 247 209 274 288 285 282 286 275 267 242 169 162 176 180 185 187 196 202 199 200 200 199 201 204 214 227 227 235 244 248 245 255 267 263 274 271 277 263 266 268 272 261 241 234 221
246 231 239 246 266 274 259 274 278 279 268 276 273 224 166 170 190 193 197 202 202 205 203 198 200 196 197 201 213 220 224 241 250 245 251 267 259 263 269 270 269 271 276 276 279 260 239 232 223
220 246 248 261 272 271 274 266 264 280 279 277 268 196 189 186 200 206 206 208 210 205 199 192 188 188 194 202 204 211 224 234 246 253 261 259 259 264 263 265 266 271 269 269 270 260 239 231 224
225 254 260 259 261 259 265 274 278 272 274 276 250 222 197 195 202 207 211 214 213 209 196 183 183 186 192 198 198 208 223 246 257 265 269 264 262 264 260 255 268 269 260 269 265 257 240 228 224
252 271 278 262 261 260 280 279 268 273 264 259 267 235 216 206 205 210 210 209 206 201 186 181 180 184 189 192 195 211 247 260 268 277 276 268 262 263 256 248 262 264 258 255 250 244 235 229 224
357 287 265 236 240 256 176 265 268 268 262 261 262 260 211 220 207 217 213 203 196 181 180 178 179 185 186 193 202 231 266 280 283 278 275 264 258 259 252 253 258 262 250 247 247 236 231 230 234
260 258 267 279 221 249 180 277 275 267 226 259 266 261 218 233 222 220 209 196 186 181 176 176 182 186 189 200 222 250 281 292 288 280 274 260 254 253 255 252 252 255 247 243 244 233 227 228 231
219 238 247 251 200 221 252 259 277 281 289 264 269 270 228 222 222 204 190 187 181 179 176 176 181 186 192 202 227 261 276 292 295 286 275 258 256 249 248 251 244 247 242 240 238 228 220 226 230
228 234 247 258 213 233 240 252 274 282 287 280 277 265 235 228 153 169 167 172 173 174 173 175 171 179 183 198 226 272 276 292 303 294 271 254 250 243 241 247 247 233 239 238 229 212 210 219 221
232 246 256 281 265 246 276 269 270 283 277 272 268 257 242 105 107 134 150 159 166 167 171 170 173 176 183 203 235 269 281 300 311 296 267 261 268 250 241 240 239 225 226 222 200 192 191 209 210
224 230 247 251 299 226 278 282 278 279 287 278 246 214 174 187 178 162 162 158 162 165 168 169 173 173 182 202 190 259 288 302 313 300 277 276 269 254 239 228 226 222 210 204 192 192 191 178 194
231 221 241 256 276 271 116 289 294 279 289 285 265 217 233 202 145 160 158 156 162 167 168 169 170 172 177 180 203 257 301 318 310 287 298 278 224 205 204 219 202 195 204 203 200 193 192 191 170
237 225 244 255 258 298 271 265 255 267 287 266 269 236 231 188 158 161 155 154 166 165 168 169 169 173 185 184 213 245 308 333 266 224 314 224 179 185 187 178 168 183 214 212 207 203 202 195 191
233 230 287 265 234 254 264 163 276 230 226 264 261 294 118 131 118 116 128 155 162 165 167 167 170 181 190 205 220 236 308 124 210 195 179 289 209 185 175 174 154 153 228 175 190 192 197 210 218
194 112 271 307 198 222 234 180 239 257 245 247 250 166 138 131 126 141 156 154 155 165 166 169 174 186 193 201 216 222 172 163 215 200 244 233 178 174 163 154 144 107 127 163 169 188 185 193 210
210 187 175 201 183 213 181 236 252 242 259 232 238 145 128 138 140 158 160 157 159 167 169 173 182 191 194 209 196 203 192 182 154 42 177 160 153 164 164 156 154 141 116 130 162 162 174 190 194
199 206 181 358 278 72 208 285 323 268 305 206 150 144 155 151 156 160 159 160 162 170 172 177 185 190 192 197 197 207 204 189 158 72 98 138 141 161 166 172 166 154 165 152 149 151 160 167 173
159 153 188 192 228 219 263 254 230 256 199 191 159 163 137 134 145 161 157 161 172 176 177 180 187 195 192 182 197 214 190 191 174 89 124 135 146 162 174 174 184 178 172 153 147 134 130 137 134
164 231 156 160 186 177 180 257 211 213 186 190 213 176 164 163 167 166 157 169 176 178 179 183 192 197 193 188 198 208 177 175 188 158 152 146 152 161 169 175 173 174 163 153 141 121 119 134 139
200 205 212 200 211 208 164 258 227 209 191 170 197 179 155 167 166 159 159 157 168 178 180 186 192 196 192 196 194 188 171 158 176 166 164 162 143 145 154 154 155 160 155 151 140 127 122 133 137